Location: Chilton Park
(37.7711°N, 100.0276°W)
Time: 21:44:10
(UTC+00:00)

Cosmos 2227 Rocket - Pass Details

Date: 05 July 2022
Orbit: 839 x 844 km, 71.0° (Epoch: 07 August)

Event Time Altitude Azimuth Distance (km) Brightness Sun altitude
Exits shadow 08:13:27 32° 126° (SE) 1,411 3.2 -26.0°
Maximum altitude 08:14:29 35° 104° (ESE) 1,346 3.3 -25.9°
Drops below altitude 10° 08:19:33 10° 41° (NE) 2,469 5.6 -25.5°
Sets 08:22:11 0° 32° (NNE) 3,408 6.7 -25.3°
